www.pogodaiklimat.ru

Погода и климат >> Архив погоды >> Малайзия >> Лангкави


ПОГОДА в Лангкави

  • Прогноз погоды в Лангкави
  • Монитор погоды в Лангкави

АРХИВ ПОГОДЫ в Лангкави

Время (UTC), дата Ветер
(напр.,м/с)
 
Видим.   Явления Облачность Т
(С)
Тd
(С)
f
(%)
Тe
(С)
Тes
(С)
Комфортность P
(гПа)
Po
(гПа)
Тmin
(С)
Tmax
(С)
R
(мм)
R24
(мм)
S
(см)
00 16.09 С 2 1000 м гроза, ливневой дождь 9/6 150 м
[Cb cap Ac lent Cs]
+24.4 +23.2 93 +33 +33 очень
душно
1009.8 1008.9 +24.4 23
06 16.09 В 2 10 км слаб. дождь 9/6 300 м
[Cb cap Ac lent Cs]
+25.9 +24.9 94 +37 +42 очень
душно
1009.1 1008.3 39
12 16.09 В 2 10 км слаб. дождь 9/3 360 м
[Sc Ac lent Cs]
+25.7 +25.1 96 +37 +37 очень
душно
1008.0 1007.2 +26.8 8
18 16.09 СВ 1 10 км слаб. дождь 9/3 360 м
[Sc Ac lent Cs]
+24.6 +23.8 95 +33 +33 очень
душно
1009.2 1008.4 0.8
00 17.09 СВ 2 10 км слаб. дождь 9/5 360 м
[Cb cap Ac lent Cs]
+24.0 +23.6 98 +33 +33 очень
душно
1010.7 1009.8 +23.5 64
06 17.09 ЮЗ 3 12 км мгла {дождь} 9/3 600 м
[Cu med, cong Ac lent Ci sp]
+30.8 +25.6 74 +45 +53 опасность
перегрева
1009.5 1008.7 0.2
12 17.09 В 2 12 км мгла 9/3 800 м
[Sc Ac trans Ci sp]
+28.8 +25.9 84 +43 +43 опасность
перегрева
1009.3 1008.5 +31.1
18 17.09 штиль 0 12 км мгла 9/3 800 м
[Sc Ac trans Ci sp]
+26.1 +24.8 93 +37 +37 очень
душно
1010.3 1009.5
00 18.09 СВ 2 7000 м мгла 9/3 660 м
[Cu med, cong Ac lent Ci sp]
+26.2 +24.4 90 +37 +37 очень
душно
1010.7 1009.9 +24.0 0.2
06 18.09 ЮЗ 2 1000 м мгла 9/5 500 м
[Cb cap Ac lent Ci sp]
+30.9 +25.7 74 +46 +53 опасность
перегрева
1010.0 1009.2
12 18.09 СВ 2 5000 м в посл. час дождь 9/3 800 м
[Sc Ac lent Ci sp]
+25.9 +24.3 91 +36 +36 очень
душно
1010.3 1009.5 +31.2 0.4
18 18.09 В 1 4000 м мгла 9/3 800 м
[Sc Ac lent Ci sp]
+26.0 +24.8 93 +37 +37 очень
душно
1011.0 1010.2
00 19.09 СВ 1 3000 м мгла {дождь} 9/4 500 м
[Sc Ac lent Cs]
+25.9 +23.9 89 +36 +36 очень
душно
1011.7 1010.9 +25.1 0.4
06 19.09 СЗ 2 4000 м мгла 9/3 600 м
[Cu hum Ac lent Ci sp]
+29.9 +25.4 77 +44 +53 опасность
перегрева
1010.6 1009.8
12 19.09 штиль 0 4000 м мгла 9/3 800 м
[Sc Ac lent Cs]
+28.0 +25.6 87 +41 +41 опасность
перегрева
1010.1 1009.3 +30.7
18 19.09 штиль 0 4000 м мгла 9/3 800 м
[Sc Ac lent Ci sp]
+26.1 +24.9 93 +37 +37 очень
душно
1010.8 1010.0
00 20.09 СВ 2 4000 м мгла 9/4 500 м
[Cb cap Ac lent Ci sp]
+26.4 +25.1 93 +38 +38 очень
душно
1011.3 1010.5 +25.9
06 20.09 ЮЗ 3 8000 м мгла {гроза, дождь} 9/4 600 м
[Sc diur, vesp Ac lent Ci sp]
+29.7 +25.6 79 +44 +51 опасность
перегрева
1010.8 1010.0 0.2
12 20.09 ЮВ 1 6000 м мгла 9/3 800 м
[Sc Ac lent Ci sp]
+28.4 +26.0 87 +43 +43 опасность
перегрева
1009.0 1008.2 +30.4
18 20.09 СВ 2 5000 м мгла 9/3 800 м
[Sc Ac lent Ci sp]
+26.0 +24.3 90 +36 +36 очень
душно
1009.7 1008.9
00 21.09 СВ 2 7000 м мгла 9/3 600 м
[Cu med, cong Ac lent Ci sp]
+26.0 +24.4 91 +36 +37 очень
душно
1009.7 1008.9 +25.0 0.2
06 21.09 З 3 6000 м мгла 9/4 500 м
[Cb cap Ac lent Ci sp]
+30.9 +26.7 78 +48 +54 опасность
перегрева
1009.0 1008.2
12 21.09 ЮЗ 1 5000 м мгла {гроза, дождь} 9/3 800 м
[Sc Ac trans Ci sp]
+28.2 +26.2 89 +43 +43 опасность
перегрева
1008.6 1007.8 +31.2 2
18 21.09 СВ 2 3000 м мгла {туман} 9/3 800 м
[Sc Ac trans Ci sp]
+26.6 +24.9 90 +38 +38 очень
душно
1009.9 1009.1
00 22.09 СВ 1 1200 м мгла {туман} 9/3 800 м
[Sc Ac trans Ci fib]
+26.7 +25.3 92 +39 +39 очень
душно
1010.1 1009.3 +26.0 2
06 22.09 В 2 1000 м мгла 9/4 500 м
[Cb cap Ac trans Ci sp]
+32.9 +26.1 68 +49 +57 опасность
перегрева
1009.1 1008.3
12 22.09 СВ 2 2000 м мгла 9/3 800 м
[Sc Ac lent Ci sp]
+29.2 +26.2 84 +44 +44 опасность
перегрева
1010.1 1009.3 +33.0
18 22.09 СВ 1 5000 м зарница 9/4 500 м
[Cb cap Ac lent Ci sp]
+28.0 +25.4 86 +41 +41 опасность
перегрева
1010.9 1010.1

 

Местоположение метеостанции Лангкави (Малайзия): широта 6.33 долгота 99.73 высота над уровнем моря 7 м.

В архиве по умолчанию представлена погода в Лангкави за последнюю неделю. Архивные данные за месяц целиком и за предыдущие месяцы, начиная с января 2011 года, Вы можете получить, выбрав интересующий диапазон дат из раскрывающегося списка и нажав кнопку "Ввод!".


*Определитесь, кто Вы:
робот инопланетянин человек

Внимание! Время в таблицах - всемирное. Для получения местного времени необходимо прибавить поправку, которая равна 7 ч.

Смотрите также архив погоды в соседних городах и на ближайших метеорологических станциях:

Погода в Сатуне (Таиланд) (53 км)
Погода в Хо Хонг Агромете (Таиланд) (53 км)
Погода в Алор Стар (Малайзия) (75 км)
Погода в Садао (Таиланд) (91 км)
Погода в Хатъяе (Таиланд) (101 км)
Погода на Авиабазе Баттерворт (Малайзия) (120 км)
Погода в Пенанге (Малайзия) (129 км)
Погода в Транге (Таиланд) (133 км)
Погода в Сонгкхле (Таиланд) (137 км)
Погода в Пхаттхалунг Агромете (Таиланд) (147 км)

Пояснения к столбцам:

Ветер - указаны скорость ветра в м/с - средняя за 10 мин, порывы в срок и между сроками (в фигурных скобках) и направление, откуда дует ветер: С - северный, СВ - северо-восточный, В - восточный, ЮВ - юго-восточный, Ю - южный, ЮЗ - юго-западный, З - западный, СЗ - северо-западный.
Видимость - горизонтальная дальность видимости в метрах или километрах. При видимости от 1 до 10 км при отсутствии осадков обычно наблюдается дымка, при ухудшении видимости до 1 км и менее - туман. В сухую погоду видимость может ухудшаться дымом, пылью или мглою.
Явления - указаны атмосферные явления, наблюдавшиеся в срок или в последний час перед сроком; фигурными скобками обозначены явления, наблюдавшиеся между сроками (за 1-3 часа до срока); квадратными скобками обозначены град или гололедные отложения с указанием их диаметра в мм.
Облачность - указаны через наклонную черту общая и нижняя облачность в баллах и высота нижней границы облаков в метрах; квадратными скобками обозначены формы облаков: Ci - перистые, Cs - перисто-слоистые, Cc - перисто-кучевые, Ac - высококучевые, As - высокослоистые, Sc - слоисто-кучевые, Ns - слоисто-дождевые, Cu - кучевые, Cb - кучево-дождевые. Подробнее классификацию облаков см. в Атласе облаков (PDF).
T - Температура воздуха - температура, измеренная на высоте 2 м над землей.
Td - Температура точки росы - температура, при понижении до которой содержащийся в воздухе водяной пар достигнет насыщения.
f - Относительная влажность воздуха - влажноcть воздуха, измеренная на высоте 2 м над землей.
Te - Эффективная температура - температура, которую ощущает одетый по сезону человек в тени. Характеристика душности погоды. При расчете учитывается влияние влажности воздуха и скорости ветра на теплоощущения человека.
Tes - Эффективная температура на солнце - температура, которую ощущает человек, с поправкой на солнечный нагрев. Характеристика знойности погоды. Зависит от высоты солнца над горизонтом, облачности и скорости ветра. Ночью, в пасмурную погоду, а также при ветре 12 м/с и более поправка равна нулю.
P - Атмосферное давление - приведенное к уровню моря атмосферное давление.
Po - Атмосферное давление - измеренное на уровне метеостанции атмосферное давление.
Tmin - Минимальная температура - минимум температуры воздуха на высоте 2 м над землей.
Tmax - Максимальная температура - максимум температуры воздуха на высоте 2 м над землей.
R - Количество осадков - Количество выпавших осадков за период времени, мм. При наведении курсора мыши на число - период времени, за который выпало указанное количество осадков.
R24 - Количество осадков - Количество выпавших осадков за 24 часа, мм.
S - Снежный покров - Высота снежного покрова, см. При наведении курсора мыши на число - состояние снежного покрова и степень покрытия местности в баллах.